�N����,����,�~����,�C��,���x,�C��,����,���ϕ���,�ő�u�ԕ���,�ő厞����,���˗�,�I�_���x,�n�����x,�ő啗���N��,DTYPE
"18/12/04","00:10",0.0,14.0,97.4,1014.9,321.4,0.7,1.3,318.6,0.00,13.6,13.8,"00:03:20",1
"18/12/04","00:20",0.0,14.0,97.5,1014.7,289.7,0.6,1.1,270.7,0.00,13.7,13.6,"00:10:32",1
"18/12/04","00:30",0.0,14.0,97.6,1014.5,286.3,0.5,1.0,322.7,0.00,13.7,14.0,"00:20:32",1
"18/12/04","00:40",0.0,14.1,97.6,1014.5,260.8,0.2,0.9,282.9,0.00,13.8,13.9,"00:39:04",1
"18/12/04","00:50",0.0,14.2,97.7,1014.7,314.2,0.8,1.2,315.5,0.00,13.9,13.8,"00:40:56",1
"18/12/04","01:00",0.0,14.3,97.8,1014.0,292.1,0.3,1.2,345.6,0.00,14.0,13.6,"00:50:02",1
"18/12/04","01:10",0.0,14.3,97.6,1014.5,332.7,1.3,2.0,321.6,0.00,14.0,13.7,"01:07:12",1
"18/12/04","01:20",0.0,14.2,97.7,1014.0,293.5,0.6,0.9,314.3,0.00,13.9,13.9,"01:17:04",1
"18/12/04","01:30",0.0,14.3,97.8,1014.2,287.8,0.7,1.3,269.5,0.00,14.0,13.7,"01:29:44",1
"18/12/04","01:40",0.0,14.4,97.8,1014.2,299.3,0.7,1.4,246.7,0.00,14.1,13.7,"01:35:54",1
"18/12/04","01:50",0.0,14.4,97.7,1014.5,352.7,0.7,1.2,328.2,0.00,14.1,13.7,"01:49:52",1
"18/12/04","02:00",0.0,14.4,97.7,1014.2,317.1,0.7,1.4,322.6,0.00,14.1,13.6,"01:50:08",1
"18/12/04","02:10",0.0,14.4,97.8,1014.5,307.7,1.1,1.7,324.4,0.00,14.1,13.7,"02:00:48",1
"18/12/04","02:20",0.0,14.5,97.9,1014.0,308.1,0.8,1.3,337.6,0.00,14.2,13.8,"02:14:00",1
"18/12/04","02:30",0.0,14.5,97.8,1013.8,286.9,0.8,1.2,335.8,0.00,14.2,13.8,"02:25:12",1
"18/12/04","02:40",0.0,14.6,97.9,1014.0,300.0,0.8,1.1,302.0,0.00,14.3,13.7,"02:33:44",1
"18/12/04","02:50",0.0,14.6,98.0,1013.8,283.7,0.7,1.0,307.8,0.00,14.3,14.0,"02:49:04",1
"18/12/04","03:00",0.0,14.7,97.3,1014.0,19.5,0.5,0.8,286.0,0.00,14.3,13.9,"02:50:16",1
"18/12/04","03:10",0.0,14.6,97.8,1013.8,29.5,0.5,1.8,319.6,0.00,14.3,13.7,"03:09:12",1
"18/12/04","03:20",0.0,14.5,97.8,1013.5,320.0,1.1,2.0,316.9,0.00,14.2,14.0,"03:11:36",1
"18/12/04","03:30",0.0,14.5,98.0,1013.5,276.3,0.7,1.7,317.2,0.00,14.2,14.0,"03:20:40",1
"18/12/04","03:40",0.0,14.7,97.5,1013.0,295.4,0.6,1.1,249.6,0.00,14.3,13.9,"03:33:28",1
"18/12/04","03:50",0.0,14.6,97.9,1013.3,346.9,0.2,0.8,333.7,0.00,14.3,13.8,"03:44:48",1
"18/12/04","04:00",0.0,14.5,97.9,1012.8,318.7,1.0,1.3,312.2,0.00,14.2,13.9,"03:57:36",1
"18/12/04","04:10",0.0,14.5,98.0,1013.0,303.8,1.1,1.4,322.0,0.00,14.2,13.7,"04:00:48",1
"18/12/04","04:20",0.0,14.6,97.5,1013.0,305.3,1.1,1.3,305.6,0.00,14.2,13.7,"04:13:52",1
"18/12/04","04:30",0.0,14.6,98.0,1012.8,319.5,1.0,1.6,313.9,0.00,14.3,14.1,"04:28:32",1
"18/12/04","04:40",0.0,14.7,97.5,1012.8,340.8,0.7,1.3,338.7,0.00,14.3,13.9,"04:30:02",1
"18/12/04","04:50",0.0,14.6,97.9,1012.8,317.1,1.2,1.9,321.2,0.00,14.3,13.8,"04:48:08",1
"18/12/04","05:00",0.0,14.6,98.1,1013.0,289.9,1.0,1.4,312.1,0.00,14.3,13.9,"04:57:52",1
"18/12/04","05:10",0.0,14.7,97.6,1013.0,313.2,1.0,1.3,335.6,0.00,14.4,13.9,"05:07:20",1
"18/12/04","05:20",0.0,14.6,98.0,1012.6,309.3,0.8,1.8,315.5,0.00,14.3,14.0,"05:13:36",1
"18/12/04","05:30",0.0,14.7,97.5,1012.8,303.5,0.7,1.2,274.1,0.00,14.3,13.7,"05:24:24",1
"18/12/04","05:40",0.0,14.5,97.9,1012.8,349.6,0.3,0.8,279.0,0.00,14.2,13.9,"05:30:16",1
"18/12/04","05:50",0.0,14.3,97.9,1012.8,3.4,0.3,1.4,318.7,0.00,14.0,13.9,"05:48:16",1
"18/12/04","06:00",0.0,14.2,98.2,1013.0,317.6,1.1,1.6,329.0,0.00,14.0,13.8,"05:56:32",1
"18/12/04","06:10",0.0,14.2,97.7,1013.0,306.4,0.8,1.6,342.0,0.00,13.9,13.7,"06:00:40",1
"18/12/04","06:20",0.0,14.1,98.4,1013.3,301.9,1.0,1.6,310.6,0.00,13.9,13.7,"06:16:48",1
"18/12/04","06:30",0.0,13.9,97.2,1012.8,306.8,0.6,1.1,312.2,0.00,13.5,13.9,"06:23:12",1
"18/12/04","06:40",0.0,13.5,98.1,1012.8,301.5,1.0,1.2,294.1,0.00,13.2,13.8,"06:30:48",1
"18/12/04","06:50",0.0,13.8,98.2,1013.3,300.6,0.5,1.1,314.0,0.00,13.6,13.8,"06:42:16",1
"18/12/04","07:00",0.0,13.9,98.1,1012.8,339.4,0.3,0.8,279.6,0.00,13.6,13.7,"06:50:08",1
"18/12/04","07:10",0.0,13.8,98.0,1013.0,311.6,1.0,1.4,309.5,0.00,13.5,13.8,"07:05:04",1
"18/12/04","07:20",0.0,13.8,98.0,1012.8,316.9,1.2,1.7,319.4,0.00,13.5,13.6,"07:12:56",1
"18/12/04","07:30",0.0,13.9,98.0,1013.0,285.8,0.8,1.3,310.6,0.00,13.6,13.9,"07:28:08",1
"18/12/04","07:40",0.0,14.1,98.0,1013.0,312.7,0.5,1.2,312.8,0.00,13.8,13.9,"07:30:40",1
"18/12/04","07:50",0.0,14.1,97.9,1013.0,320.1,1.2,1.8,325.5,0.00,13.8,13.6,"07:43:20",1
"18/12/04","08:00",0.0,14.3,98.6,1012.8,289.7,1.1,1.7,305.7,0.00,14.1,13.7,"07:56:56",1
"18/12/04","08:10",0.0,14.7,98.0,1012.6,305.3,0.7,1.2,323.4,0.02,14.4,13.5,"08:09:36",1
"18/12/04","08:20",0.0,15.1,97.7,1012.8,306.8,1.2,1.6,314.2,0.05,14.8,13.8,"08:15:20",1
"18/12/04","08:30",0.0,15.3,98.0,1012.8,313.5,1.3,2.0,319.9,0.07,15.0,13.7,"08:29:04",1
"18/12/04","08:40",0.0,15.9,96.7,1012.8,281.6,0.6,1.3,308.5,0.12,15.4,14.1,"08:30:16",1
"18/12/04","08:50",0.0,16.3,96.4,1012.6,325.6,0.5,1.3,328.7,0.11,15.8,14.0,"08:42:56",1
"18/12/04","09:00",0.0,16.7,95.3,1012.6,217.4,0.3,1.0,217.8,0.12,16.0,14.1,"08:52:24",1
"18/12/04","09:10",0.0,17.2,93.4,1012.6,249.3,0.5,1.1,245.9,0.16,16.2,14.3,"09:02:08",1
"18/12/04","09:20",0.0,17.6,90.5,1012.3,200.0,0.5,1.3,125.8,0.07,16.1,14.5,"09:11:52",1
"18/12/04","09:30",0.0,17.8,89.4,1012.1,260.7,0.3,0.8,267.6,0.08,16.1,14.6,"09:24:48",1
"18/12/04","09:40",0.0,17.8,89.1,1012.3,184.2,0.3,1.0,202.5,0.07,16.0,14.7,"09:37:12",1
"18/12/04","09:50",0.0,17.8,89.1,1012.6,359.8,0.5,1.1,108.5,0.11,16.0,14.7,"09:43:28",1
"18/12/04","10:00",0.0,18.3,87.7,1012.1,31.1,0.5,1.3,39.4,0.21,16.3,14.7,"09:50:48",1
"18/12/04","10:10",0.0,18.7,86.7,1012.1,146.0,0.6,1.6,210.2,0.23,16.5,14.9,"10:09:52",1
"18/12/04","10:20",0.0,18.3,86.4,1012.3,228.8,0.7,1.4,215.7,0.18,16.0,14.9,"10:14:24",1
"18/12/04","10:30",0.0,18.3,86.6,1011.6,237.8,0.7,1.3,240.8,0.13,16.1,15.1,"10:25:04",1
"18/12/04","10:40",0.0,19.1,85.2,1011.4,200.7,0.7,1.6,217.5,0.30,16.6,15.4,"10:34:48",1
"18/12/04","10:50",0.0,19.2,83.3,1010.4,181.1,1.0,1.8,112.4,0.39,16.3,15.7,"10:48:00",1
"18/12/04","11:00",0.0,19.1,83.2,1010.2,216.7,1.1,2.1,210.0,0.26,16.2,15.5,"10:53:36",1
"18/12/04","11:10",0.0,19.7,82.5,1010.2,230.1,1.1,2.5,217.9,0.34,16.7,16.0,"11:03:12",1
"18/12/04","11:20",0.0,19.8,80.6,1009.7,183.7,0.7,1.8,140.9,0.19,16.4,16.1,"11:18:32",1
"18/12/04","11:30",0.0,20.0,78.6,1009.7,128.3,0.8,2.0,123.1,0.20,16.2,16.1,"11:29:04",1
"18/12/04","11:40",0.0,19.9,79.2,1009.7,141.8,0.6,1.7,127.5,0.16,16.2,16.3,"11:30:08",1
"18/12/04","11:50",0.0,20.3,78.8,1009.0,162.0,0.6,1.6,218.3,0.20,16.5,16.4,"11:48:56",1
"18/12/04","12:00",0.0,20.8,77.2,1008.6,147.2,0.7,1.8,145.6,0.28,16.7,16.7,"11:56:56",1
"18/12/04","12:10",0.0,20.5,76.9,1008.1,119.9,1.0,2.8,121.0,0.20,16.4,16.7,"12:00:02",1
"18/12/04","12:20",0.0,20.4,77.4,1008.3,119.3,1.3,2.5,114.5,0.16,16.4,16.6,"12:11:20",1
"18/12/04","12:30",0.0,20.9,76.3,1008.1,74.4,0.8,1.7,112.3,0.19,16.6,16.8,"12:20:16",1
"18/12/04","12:40",0.0,21.2,75.1,1007.4,129.9,0.8,2.4,111.5,0.31,16.7,16.8,"12:32:56",1
"18/12/04","12:50",0.0,21.9,74.0,1007.1,226.7,0.8,2.2,211.0,0.38,17.1,17.1,"12:48:08",1
"18/12/04","13:00",0.0,22.6,72.8,1006.9,214.9,0.6,1.9,107.9,0.43,17.5,17.5,"12:58:24",1
"18/12/04","13:10",0.0,22.2,73.7,1006.4,188.8,1.1,2.0,152.5,0.42,17.3,17.6,"13:05:36",1
"18/12/04","13:20",0.0,22.4,73.0,1006.4,182.9,0.7,2.1,124.2,0.21,17.4,17.7,"13:18:32",1
"18/12/04","13:30",0.0,22.6,71.4,1006.4,91.8,1.1,2.4,114.0,0.10,17.2,17.8,"13:20:56",1
"18/12/04","13:40",0.0,22.2,71.9,1006.4,127.7,1.2,2.9,124.7,0.06,16.9,17.7,"13:30:48",1
"18/12/04","13:50",0.0,22.2,72.9,1006.2,96.4,0.7,1.8,43.5,0.03,17.2,17.6,"13:41:52",1
"18/12/04","14:00",0.0,22.0,74.5,1006.4,201.6,0.8,2.1,110.4,0.03,17.3,17.7,"13:51:28",1
"18/12/04","14:10",0.2,21.4,76.9,1006.0,270.9,1.0,1.6,324.9,0.01,17.2,17.5,"14:00:40",1
"18/12/04","14:20",0.2,21.1,80.5,1006.2,310.0,1.1,1.6,325.4,0.02,17.7,17.5,"14:14:32",1
"18/12/04","14:30",0.2,20.5,84.4,1005.7,318.4,0.8,2.0,337.6,0.00,17.8,17.4,"14:22:24",1
"18/12/04","14:40",0.0,20.3,86.9,1005.7,289.6,0.7,1.3,319.6,0.03,18.1,17.5,"14:39:04",1
"18/12/04","14:50",0.0,20.1,88.2,1005.7,289.7,1.0,1.7,335.3,0.05,18.1,17.4,"14:49:44",1
"18/12/04","15:00",0.0,20.0,89.2,1005.7,293.7,1.0,1.9,338.1,0.04,18.2,17.4,"14:50:08",1
"18/12/04","15:10",0.0,19.9,90.1,1005.7,307.4,1.2,2.0,332.3,0.03,18.3,17.3,"15:01:28",1
"18/12/04","15:20",0.0,19.9,90.9,1005.7,281.3,0.8,1.4,305.5,0.04,18.4,17.4,"15:10:08",1
"18/12/04","15:30",0.0,19.9,91.2,1005.5,286.0,1.0,1.9,324.9,0.05,18.5,17.2,"15:22:40",1
"18/12/04","15:40",0.0,19.9,91.7,1005.5,289.8,0.5,1.2,318.8,0.08,18.5,17.2,"15:38:48",1
"18/12/04","15:50",0.0,20.1,92.1,1005.2,265.4,0.8,1.3,248.9,0.07,18.8,17.4,"15:46:08",1
"18/12/04","16:00",0.0,20.2,91.5,1005.5,285.6,0.8,1.8,300.9,0.06,18.8,17.3,"15:59:52",1
"18/12/04","16:10",0.0,20.0,91.8,1005.5,296.5,1.1,2.0,338.4,0.01,18.7,17.0,"16:03:28",1
"18/12/04","16:20",0.0,19.9,92.0,1005.5,315.0,0.6,1.3,35.9,0.00,18.6,17.3,"16:19:44",1
"18/12/04","16:30",0.0,19.9,92.3,1005.7,303.8,0.8,1.4,339.0,0.00,18.7,17.2,"16:24:32",1
"18/12/04","16:40",0.0,19.8,92.5,1005.5,302.2,0.7,1.4,257.7,0.01,18.6,17.1,"16:31:52",1
"18/12/04","16:50",0.0,19.8,92.6,1005.7,305.2,1.1,1.4,329.0,0.00,18.6,17.3,"16:42:40",1
"18/12/04","17:00",0.0,19.5,92.8,1005.7,315.8,1.0,1.9,335.9,0.00,18.3,17.0,"16:50:40",1
"18/12/04","17:10",0.0,19.4,93.0,1005.5,344.3,1.2,2.8,352.6,0.00,18.3,17.1,"17:06:36",1
"18/12/04","17:20",0.0,19.2,93.3,1005.7,307.6,0.8,1.9,327.1,0.00,18.1,17.0,"17:18:00",1
"18/12/04","17:30",0.4,19.1,93.4,1006.2,330.4,1.1,2.5,319.4,0.00,18.0,17.0,"17:20:02",1
"18/12/04","17:40",0.0,19.1,93.6,1005.5,337.7,1.3,2.2,340.8,0.00,18.1,16.8,"17:36:08",1
"18/12/04","17:50",0.0,19.2,93.7,1006.0,288.9,0.8,2.0,326.6,0.00,18.2,16.7,"17:42:24",1
"18/12/04","18:00",0.0,19.7,93.3,1006.4,294.8,1.1,2.7,348.0,0.00,18.6,16.9,"17:54:56",1
"18/12/04","18:10",0.0,19.8,92.8,1006.0,295.0,0.8,1.7,335.1,0.00,18.6,16.7,"18:05:12",1
"18/12/04","18:20",0.0,19.6,93.0,1006.2,333.6,1.8,3.1,351.3,0.00,18.5,16.6,"18:13:12",1
"18/12/04","18:30",0.2,19.9,92.9,1006.4,337.7,2.0,3.4,335.5,0.00,18.8,16.9,"18:29:04",1
"18/12/04","18:40",6.8,20.0,92.8,1006.2,303.3,2.0,4.0,316.1,0.00,18.8,16.9,"18:30:48",1
"18/12/04","18:50",0.2,20.0,93.0,1005.7,200.5,1.6,4.4,228.0,0.00,18.9,16.7,"18:46:08",1
"18/12/04","19:00",0.2,19.8,92.9,1006.0,331.8,1.5,3.3,333.5,0.00,18.7,16.9,"18:53:36",1
"18/12/04","19:10",0.0,19.6,93.5,1006.0,297.0,1.0,2.0,307.2,0.00,18.6,16.9,"19:01:44",1
"18/12/04","19:20",0.0,19.5,93.8,1006.0,239.5,0.8,1.8,222.5,0.00,18.5,16.7,"19:16:24",1
"18/12/04","19:30",0.2,19.4,93.9,1006.7,310.3,1.2,2.6,301.2,0.00,18.4,16.7,"19:26:48",1
"18/12/04","19:40",0.0,19.2,93.9,1006.7,294.6,1.8,4.3,340.8,0.00,18.2,16.5,"19:37:28",1
"18/12/04","19:50",0.0,19.3,93.4,1007.1,287.3,2.5,7.1,246.8,0.00,18.2,16.9,"19:48:16",1
"18/12/04","20:00",0.0,19.3,92.7,1007.4,278.3,1.8,3.5,309.7,0.00,18.1,16.9,"19:55:20",1
"18/12/04","20:10",0.0,19.1,92.4,1007.1,272.8,1.6,3.4,325.2,0.00,17.9,16.6,"20:02:24",1
"18/12/04","20:20",0.0,19.3,91.4,1007.4,259.3,2.2,5.2,214.8,0.00,17.9,16.6,"20:11:36",1
"18/12/04","20:30",0.0,19.1,90.8,1007.8,301.2,1.6,2.8,285.3,0.00,17.6,16.7,"20:23:52",1
"18/12/04","20:40",0.0,19.0,90.7,1007.6,293.6,1.2,2.2,308.5,0.00,17.5,16.5,"20:39:04",1
"18/12/04","20:50",0.0,18.8,90.6,1007.8,295.5,1.2,2.2,339.7,0.00,17.3,16.5,"20:46:24",1
"18/12/04","21:00",0.0,18.6,91.0,1008.1,315.4,1.6,3.2,338.0,0.00,17.1,16.4,"20:55:12",1
"18/12/04","21:10",0.0,18.6,91.1,1008.1,301.4,1.5,2.7,327.4,0.00,17.2,16.5,"21:05:12",1
"18/12/04","21:20",0.0,18.5,91.1,1007.8,308.0,1.5,2.5,341.5,0.00,17.1,16.5,"21:15:28",1
"18/12/04","21:30",0.0,18.3,91.6,1008.1,307.3,1.2,2.2,334.8,0.00,16.9,16.4,"21:21:28",1
"18/12/04","21:40",0.0,18.3,91.9,1008.3,316.7,1.6,2.5,340.8,0.00,17.0,16.2,"21:36:16",1
"18/12/04","21:50",0.0,18.6,91.9,1008.6,280.9,1.6,2.9,267.3,0.00,17.3,16.3,"21:48:48",1
"18/12/04","22:00",0.0,18.5,91.7,1008.6,313.5,2.5,5.2,326.3,0.00,17.2,16.4,"21:58:32",1
"18/12/04","22:10",0.0,18.4,90.7,1009.0,325.4,2.3,4.2,331.0,0.00,16.9,15.9,"22:04:00",1
"18/12/04","22:20",0.0,18.3,89.6,1009.0,339.4,3.0,5.6,339.9,0.00,16.6,16.2,"22:12:40",1
"18/12/04","22:30",0.0,18.0,88.3,1009.7,331.9,2.5,6.5,341.4,0.00,16.1,16.2,"22:27:20",1
"18/12/04","22:40",0.0,17.7,87.1,1009.7,341.6,3.5,7.7,331.4,0.00,15.6,16.2,"22:37:04",1
"18/12/04","22:50",0.0,17.5,86.4,1009.7,335.9,3.0,5.1,346.0,0.00,15.2,16.0,"22:49:20",1
"18/12/04","23:00",0.0,17.4,85.9,1009.7,336.3,2.0,4.5,335.3,0.00,15.1,16.1,"22:58:00",1
"18/12/04","23:10",0.0,17.0,85.1,1010.4,320.8,3.2,8.3,335.8,0.00,14.5,16.1,"23:06:32",1
"18/12/04","23:20",0.0,16.7,85.1,1010.2,1.8,2.8,6.3,330.0,0.00,14.2,16.2,"23:12:48",1
"18/12/04","23:30",0.0,16.5,85.3,1010.4,2.0,2.5,5.1,12.9,0.00,14.1,15.9,"23:22:50",1
"18/12/04","23:40",0.0,16.1,85.0,1010.4,347.7,2.5,6.5,333.9,0.00,13.6,16.1,"23:38:16",1
"18/12/04","23:50",0.0,15.9,83.6,1011.2,347.8,2.7,5.2,345.2,0.00,13.2,15.9,"23:42:00",1
"18/12/04","24:00",0.0,16.0,81.4,1011.4,354.8,2.1,5.4,338.9,0.00,12.9,15.7,"23:58:08",1
